Lid_Strength_Index
15 15 16 16 16 16 16 15 15 15 15 15 15 15 15 15 15 15 15 15 15 15 15 15 15 15 16 16 15 15 16 16
14 14 15 15 16 16 16 15 15 15 15 15 15 14 14 14 15 15 15 15 15 15 15 15 15 15 16 16 16 16 16 16
14 14 15 15 15 15 15 15 15 15 14 14 14 14 15 15 15 15 15 14 14 14 15 15 15 15 16 16 16 16 16 16
14 15 15 15 15 15 14 14 14 14 14 14 14 14 14 14 14 14 15 15 15 15 15 15 15 15 15 15 15 15 15 15
15 15 14 14 15 15 14 14 13 13 14 14 14 14 14 14 15 15 15 15 16 16 16 16 16 15 15 14 14 14 14 14
14 14 14 14 14 14 14 14 14 14 14 14 14 14 15 15 16 16 16 16 16 16 16 15 15 14 13 13 13 14 14 13
13 12 12 12 13 13 14 13 13 14 14 14 15 15 16 17 16 16 16 16 16 15 16 16 15 13 12 12 13 14 14 15
13 12 12 12 11 13 13 13 15 15 17 17 17 17 17 17 16 16 17 16 17 17 16 17 16 13 12 12 14 14 15 15
12 13 12 12 12 13 13 14 15 16 17 17 17 18 17 17 17 17 17 17 18 18 18 17 17 14 13 13 14 15 16 16
12 13 13 13 13 13 14 14 15 16 16 16 17 18 18 20 19 18 19 19 19 17 19 19 19 15 14 14 15 16 16 16
12 13 13 13 13 14 15 16 16 15 14 16 17 20 21 19 20 20 21 19 18 19 19 19 20 16 14 13 15 17 16 15
13 12 12 13 14 14 15 15 15 15 16 17 18 20 21 21 21 23 23 20 22 21 20 20 19 19 14 12 13 15 15 15
12 13 12 14 14 14 14 15 17 17 18 19 21 21 19 26 24 25 25 25 24 23 22 19 18 15 13 12 11 11 14 15
12 13 13 15 13 14 15 17 18 20 21 22 21 20 20 25 23 23 25 25 23 21 21 20 17 16 13 11 11 10 12 12
15 15 14 16 15 16 17 18 21 24 21 21 23 21 21 20 20 24 24 23 22 21 21 19 16 15 15 14 12 11 12 11
13 13 13 16 17 19 19 20 22 23 21 20 20 21 21 20 21 20 20 19 21 18 16 16 16 15 11 11 12 12 12 14
15 15 17 17 19 21 20 21 22 21 20 20 20 20 20 21 21 16 13 12 11 11 12 14 12 11 11 10 11 12 13 20
17 18 19 20 20 22 22 24 24 22 20 20 20 20 21 21 22 23 19 14 13 13 13 12 12 12 11 11 12 15 17 27
19 19 20 19 20 21 22 24 24 23 21 22 21 22 22 23 23 23 23 24 22 17 15 14 13 13 12 13 18 24 24 31
20 20 22 24 23 23 25 24 23 22 22 22 22 22 22 22 22 23 23 23 24 22 19 19 16 15 16 17 29 26 25 24